DLA5XM LIMF-EDDM

Flight info

Callsign DLA5XM
Flight time N/A
Altitude 32000
Route MMP1Z/36 MMP DCT ABESI/N0433F330 DCT NUNRI T103 BETOS BETOS1A
Aircraft E190/M-SDE3GILORVW/S

Departure

Time 2026-04-27 19:09
Airport Turin Airport (LIMF)

Arrival

Time N/A
Airport Munich Airport (EDDM)
Time Latitude Longitude Altitude Speed Heading
2026-04-27 18:39 45.19413 7.64591 957 ft 0 kts 92°
2026-04-27 18:57 45.19416 7.64558 956 ft 4 kts 115°
2026-04-27 18:57 45.19431 7.64531 957 ft 4 kts 162°
2026-04-27 18:57 45.19446 7.64528 955 ft 1 kts 182°
2026-04-27 18:58 45.19449 7.64528 954 ft 0 kts 182°
2026-04-27 19:00 45.19448 7.64528 955 ft 1 kts 182°
2026-04-27 19:00 45.19435 7.64526 954 ft 3 kts 184°
2026-04-27 19:00 45.19402 7.64524 954 ft 5 kts 181°
2026-04-27 19:01 45.19378 7.64548 955 ft 4 kts 113°
2026-04-27 19:01 45.19371 7.64587 956 ft 3 kts 105°
2026-04-27 19:01 45.19368 7.64599 957 ft 0 kts 105°
2026-04-27 19:02 45.19367 7.64606 957 ft 2 kts 105°
2026-04-27 19:03 45.19356 7.64650 955 ft 7 kts 115°
2026-04-27 19:03 45.19326 7.64668 957 ft 4 kts 181°
2026-04-27 19:03 45.19285 7.64667 955 ft 8 kts 182°
2026-04-27 19:03 45.19240 7.64664 954 ft 11 kts 182°
2026-04-27 19:04 45.19109 7.64657 948 ft 13 kts 180°
2026-04-27 19:04 45.19009 7.64654 947 ft 15 kts 185°
2026-04-27 19:04 45.18909 7.64643 942 ft 14 kts 182°
2026-04-27 19:04 45.18805 7.64637 935 ft 17 kts 183°
2026-04-27 19:05 45.18687 7.64634 934 ft 12 kts 173°
2026-04-27 19:05 45.18620 7.64701 932 ft 13 kts 109°
2026-04-27 19:05 45.18623 7.64835 929 ft 14 kts 69°
2026-04-27 19:05 45.18667 7.64874 933 ft 0 kts
2026-04-27 19:08 45.18670 7.64874 931 ft 2 kts
2026-04-27 19:08 45.18878 7.64888 940 ft 64 kts
2026-04-27 19:08 45.19556 7.64933 955 ft 130 kts
2026-04-27 19:09 45.20643 7.65000 1123 ft 175 kts
2026-04-27 19:09 45.21899 7.65098 1741 ft 178 kts
2026-04-27 19:09 45.23119 7.65163 2112 ft 178 kts
2026-04-27 19:09 45.24414 7.65233 2292 ft 190 kts
2026-04-27 19:10 45.25311 7.65298 2559 ft 198 kts
2026-04-27 19:10 45.26710 7.65826 3210 ft 218 kts 28°
2026-04-27 19:10 45.28164 7.67942 4473 ft 236 kts 63°
2026-04-27 19:10 45.28387 7.68667 4868 ft 237 kts 70°
2026-04-27 19:11 45.28594 7.71782 6401 ft 242 kts 100°
2026-04-27 19:11 45.28034 7.74006 7448 ft 244 kts 112°
2026-04-27 19:11 45.27837 7.76390 8421 ft 250 kts 77°
2026-04-27 19:11 45.28713 7.78506 9463 ft 257 kts 40°
2026-04-27 19:12 45.30302 7.79920 10197 ft 283 kts 28°
2026-04-27 19:12 45.32051 7.81531 10780 ft 313 kts 37°
2026-04-27 19:12 45.33685 7.83748 11468 ft 338 kts 50°
2026-04-27 19:12 45.35020 7.86583 12432 ft 350 kts 59°
2026-04-27 19:13 45.36196 7.89652 13563 ft 357 kts 61°
2026-04-27 19:13 45.37379 7.92901 14009 ft 384 kts 62°
2026-04-27 19:13 45.38603 7.96439 14162 ft 413 kts 63°
2026-04-27 19:13 45.39826 8.00090 13854 ft 401 kts 64°
2026-04-27 19:14 45.40967 8.03601 13690 ft 377 kts 64°
2026-04-27 19:14 45.42048 8.06866 13651 ft 354 kts 63°
2026-04-27 19:14 45.43089 8.09987 13612 ft 350 kts 63°
2026-04-27 19:14 45.44142 8.13138 13725 ft 351 kts 63°
2026-04-27 19:15 45.45209 8.16300 14134 ft 358 kts 63°
2026-04-27 19:15 45.46309 8.19531 14144 ft 363 kts 63°
2026-04-27 19:15 45.47399 8.22769 14140 ft 362 kts 64°
2026-04-27 19:15 45.48466 8.26021 14569 ft 363 kts 64°
2026-04-27 19:16 45.49556 8.29281 15440 ft 367 kts 63°
2026-04-27 19:16 45.50300 8.31468 16017 ft 371 kts 63°
2026-04-27 19:16 45.51810 8.35933 17073 ft 378 kts 63°
2026-04-27 19:16 45.52934 8.39267 17826 ft 383 kts 63°
2026-04-27 19:17 45.54091 8.42738 18569 ft 388 kts 64°
2026-04-27 19:17 45.55252 8.46241 19267 ft 392 kts 64°
2026-04-27 19:17 45.56413 8.49790 19978 ft 397 kts 64°
2026-04-27 19:17 45.57574 8.53381 20666 ft 401 kts 64°
2026-04-27 19:18 45.58750 8.57022 21318 ft 405 kts 64°
2026-04-27 19:18 45.59936 8.60703 21914 ft 410 kts 64°
2026-04-27 19:18 45.61127 8.64418 22492 ft 414 kts 64°
2026-04-27 19:18 45.62327 8.68174 23061 ft 418 kts 64°
2026-04-27 19:19 45.63660 8.71867 23719 ft 413 kts 51°
2026-04-27 19:19 45.65670 8.74628 24757 ft 393 kts 29°
2026-04-27 19:19 45.68062 8.76315 25872 ft 375 kts 20°
2026-04-27 19:19 45.70448 8.77702 26761 ft 368 kts 19°
2026-04-27 19:20 45.72831 8.79070 27306 ft 370 kts 19°
2026-04-27 19:20 45.75233 8.80462 27755 ft 374 kts 19°
2026-04-27 19:20 45.77659 8.81870 28169 ft 379 kts 19°
2026-04-27 19:20 45.80113 8.83300 28574 ft 383 kts 19°
2026-04-27 19:21 45.82600 8.84753 28966 ft 388 kts 19°
2026-04-27 19:21 45.85110 8.86221 29428 ft 390 kts 19°
2026-04-27 19:21 45.87668 8.87712 29448 ft 404 kts 18°
2026-04-27 19:21 45.90315 8.89236 29490 ft 416 kts 18°
2026-04-27 19:22 45.93010 8.90793 29492 ft 428 kts 19°
2026-04-27 19:22 45.98651 8.94078 29909 ft 441 kts 19°
2026-04-27 19:22 46.01487 8.95743 30409 ft 439 kts 19°
2026-04-27 19:23 46.04303 8.97396 30975 ft 435 kts 19°
2026-04-27 19:23 46.07090 8.99030 31566 ft 430 kts 18°
2026-04-27 19:23 46.09841 9.00636 32120 ft 421 kts 18°
2026-04-27 19:24 46.15302 9.03803 32122 ft 425 kts 18°
2026-04-27 19:24 46.20906 9.06417 32143 ft 423 kts 11°
2026-04-27 19:25 46.26599 9.08657 32041 ft 423 kts 11°
2026-04-27 19:25 46.32262 9.10978 32049 ft 422 kts 12°
2026-04-27 19:26 46.37919 9.13324 32091 ft 423 kts 12°
2026-04-27 19:26 46.43567 9.15683 32093 ft 425 kts 12°
2026-04-27 19:27 46.49238 9.18061 32099 ft 425 kts 12°
2026-04-27 19:27 46.54919 9.20447 32096 ft 425 kts 12°
2026-04-27 19:28 46.60601 9.22842 32110 ft 425 kts 12°
2026-04-27 19:28 46.66281 9.25235 32096 ft 425 kts 12°
2026-04-27 19:29 46.71967 9.27639 32106 ft 425 kts 12°